{"data":{"norad_id":45582,"epoch":"2026-05-25T02:16:54.964704Z","epoch_age_seconds":60160,"freshness":"FRESH","line1":"1 45582U 20025BD  26145.09508061  .00064557  00000+0  48161-3 0  9999","line2":"2 45582  53.0475  46.4429 0006892  68.8182 291.3572 15.72131962337680","mean_motion":15.72131962,"eccentricity":0.0006892,"inclination_deg":53.0475,"raan_deg":46.4429,"arg_perigee_deg":68.8182,"mean_anomaly_deg":291.3572,"bstar":0.00048161,"rev_number":33768,"period_min":91.595364435444,"perigee_km":348.16595626801,"apogee_km":357.44388661253,"semimajor_km":6730.9419214403,"source":"CELESTRAK","updated_at":"2026-05-25T13:38:16.425326Z"}}